Orbital elements:
2003 YH111
Epoch 2003 Dec. 27.0 TT = JDT 2453000.5                 MPC
M 328.88077              (2000.0)            P               Q
n   0.58259986     Peri.   84.02881     -0.99456248     -0.06941834
a   1.4197846      Node    91.97257     +0.03334268     -0.91845302
e   0.4868350      Incl.    4.45505     +0.09865974     -0.38939074
P   1.69           H   24.5           G   0.15           U   6
Residuals in seconds of arc
031227 704  0.2-  0.3+    031228 673  0.1-  0.2+    031228 900  0.4+  0.7+
031227 704  0.0   0.0     031228 673  0.6-  1.8+    031228 900  0.1-  0.3+
031227 704  0.1-  0.0     031228 673  0.3-  0.1+    031228 900  0.0   1.0+
031227 704  0.1+  0.1-    031228 673  0.1+  0.3+    031228 900  0.8+  0.8-
031227 704  0.8+  0.4+    031228 673  0.2+  1.1+    031228 900  0.3+  0.1-
031228 333  0.7-  0.2-    031228 333  0.2-  0.2-    031228 900  0.6+  0.2+
031228 333  0.1+  0.3+    031228 333  0.1-  0.2-    031228 900  0.9+  0.3-
031228 333  0.2+  0.5-    031228 333  0.1-  0.1+    031228 900  0.2-  0.3-
031228 333  0.1+  0.6-    031228 333  0.0   0.1+    031228 900  0.1+  0.1-
031228 J95  0.1+  0.3-    031228 673  0.0   0.3+    031228 540  0.6-  0.0
031228 J95  0.0   0.2+    031228 673  0.2-  0.1-    031228 540 (3.5+  5.6-)
031228 333  0.2+  0.0     031228 673  0.1+  0.8-    031228 900  0.4+  1.0-
031228 333  0.1-  0.4-    031228 H06  0.7-  0.7-    031228 900  0.3+  0.2+
031228 333  0.3+  0.4-    031228 H06  0.3-  0.8-    031228 900  0.2+  0.0
031228 333  0.0   0.1+    031228 H06  0.3-  1.2-    031228 900  1.1+  0.5-
031228 J95  0.3-  0.2+    031228 900 (2.2+  0.2+)   031228 900 (1.8-  5.9+)
031228 333  0.2+  0.6-    031228 900  0.2-  0.2+    031228 557  0.4-  0.1+
031228 333  0.3+  0.4-    031228 900  0.6+  1.3+    031228 557  0.8+  0.4-
031228 333  0.0   0.6-    031228 900  0.4+  0.6+    031228 557  0.0   0.1-
031228 333  0.2-  0.5-    031228 900  0.7-  0.6+    031228 557  0.1-  0.3+
031228 333  0.3-  0.0     031228 670  0.1-  0.1+    031228 557  0.2-  0.1+
031228 333  0.0   1.4-    031228 670  0.1+  0.2-    031228 J95  0.5-  0.1+
031228 854  0.2-  1.5+    031228 670  0.0   0.1+    031228 557  0.1+  0.1-
031228 854  0.3-  1.0+    031228 900  0.6+  0.0     031228 557  0.3+  0.0
031228 854  0.3-  0.4+    031228 900  0.2+  0.5-    031228 J95  0.6-  0.1+
031228 333  0.0   0.3-    031228 900  0.3-  0.1+    031228 J95  0.4-  0.4+
031228 333  0.0   0.6-    031228 900  0.1-  0.7+    031228 J95  0.3-  0.4-
031228 333  0.3+  1.2-    031228 900  0.1-  0.6+    031228 J95  0.3-  0.0
031228 333  0.2+  0.1-    031228 900  0.1-  0.7+    031228 J95  0.1-  0.0

Ephemeris:
2003 YH111               a,e,i = 1.42, 0.49, 4                   q = 0.7286
Date    TT    R. A. (2000) Decl.     Delta      r     Elong.  Phase     V
2003 12 27    06 06.73   +31 36.0    0.026    1.009   171.2     8.6    17.2
2003 12 28    06 03.26   +39 11.3    0.019    1.001   163.5    16.2    16.7
2003 12 29    05 51.78   +55 55.9    0.012    0.993   146.6    33.0    16.2

2003 12 30.0  20 08.1    +80 50.5    0.0081   0.985   104.8    74.8    16.6
2003 12 30.1  19 25.0    +75 34.2    0.0080   0.985    99.1    80.4    16.8
2003 12 30.2  19 05.0    +70 04.2    0.0081   0.984    93.4    86.1    17.0
2003 12 30.3  18 53.56   +64 35.8    0.0082   0.983    87.9    91.7    17.3
2003 12 30.4  18 46.23   +59 17.3    0.0084   0.982    82.5    97.0    17.6
2003 12 30.5  18 41.13   +54 14.7    0.0086   0.982    77.4   102.1    17.9
2003 12 30.6  18 37.38   +49 31.3    0.0089   0.981    72.7   106.8    18.2
2003 12 30.7  18 34.51   +45 09.2    0.0093   0.980    68.3   111.2    18.5
2003 12 30.8  18 32.24   +41 08.7    0.0098   0.979    64.3   115.2    18.9
2003 12 30.9  18 30.41   +37 29.5    0.010    0.978    60.7   118.8    19.3
2003 12 31.0  18 28.89   +34 10.4    0.011    0.978    57.4   122.1    19.6

2004 01 01    18 21.46   +13 54.5    0.017    0.970    37.4   142.0    22.7
2004 01 02    18 18.75   +05 08.1    0.024    0.962    29.0   150.3    24.9
2004 01 03    18 17.36   +00 27.1    0.032    0.954    24.8   154.4    26.3
2004 01 04    18 16.53   -02 26.0    0.040    0.946    22.5   156.6    27.3
2004 01 05    18 15.99   -04 23.1    0.048    0.939    21.2   157.7    28.0
2004 01 06    18 15.63   -05 47.9    0.056    0.931    20.6   158.2    28.5

Kyle E. Smalley              (C) Copyright 2003 MPC           M.P.E.C. 2003-Y83

Read MPEC 2003-Y82 Read MPEC 2003-Y84


Our Web policy. Index to the CBAT/MPC/ICQ pages.

